SR2CPA-13 Weather Reports


Display with metric or nautical units.
time (UTC)temp
F
wind
direction
speed
MPH
gust
MPH
rain 1hr
in
rain 24hr
in
rain mn
in
humidity
%
barometer
mb
20260507011400 43 33 2.0 8.0 0.00 0.02 0.00 99
20260507010400 43 296 2.0 4.0 0.00 0.03 0.00 99
20260507005400 44 26 4.0 4.0 0.00 0.03 0.00 99
20260507004340 44 46 4.0 5.0 0.00 0.03 0.00 99
20260507003340 43 61 2.0 3.0 0.00 0.03 0.00 99
20260507002320 44 21 6.0 6.0 0.00 0.03 0.00 99
20260507001320 44 49 4.0 5.0 0.00 0.03 0.00 99
20260507000321 44 47 5.0 7.0 0.00 0.03 0.00 99
20260506235300 44 56 5.0 9.0 0.00 0.03 0.00 99
20260506234300 44 53 3.0 5.0 0.00 0.03 0.00 99
20260506233240 44 46 3.0 4.0 0.00 0.03 0.00 99
20260506232240 44 351 4.0 5.0 0.00 0.03 0.00 99
20260506231240 44 23 2.0 3.0 0.00 0.03 0.00 99
20260506230222 44 46 2.0 2.0 0.00 0.03 0.00 99
20260506225221 44 306 6.0 7.0 0.00 0.03 0.00 99
20260506224200 44 350 3.0 4.0 0.00 0.03 0.00 99
20260506223200 44 53 5.0 5.0 0.00 0.03 0.00 99
20260506222200 44 41 2.0 2.0 0.00 0.03 0.00 99
20260506221140 44 51 5.0 6.0 0.00 0.03 0.00 99
20260506220140 44 64 3.0 4.0 0.00 0.03 0.00 99
20260506215120 44 32 5.0 7.0 0.00 0.03 0.03 99
20260506214120 44 1 3.0 4.0 0.00 0.03 0.03 99
20260506213120 44 26 3.0 3.0 0.00 0.03 0.03 99
20260506212100 44 38 3.0 5.0 0.00 0.03 0.03 99
20260506211100 44 43 3.0 4.0 0.00 0.03 0.03 99
20260506210040 44 345 1.0 2.0 0.00 0.03 0.03 99
20260506205040 44 8 3.0 4.0 0.00 0.03 0.03 99
20260506204040 45 1 4.0 5.0 0.00 0.03 0.03 99
20260506203020 45 0 4.0 4.0 0.00 0.03 0.03 99
20260506202020 45 3 4.0 4.0 0.00 0.03 0.03 99
20260506201020 45 26 4.0 8.0 0.00 0.03 0.03 99
20260506200000 45 25 5.0 6.0 0.00 0.03 0.03 99
20260506195000 45 33 4.0 6.0 0.00 0.03 0.03 99
20260506193940 45 2 2.0 2.0 0.00 0.03 0.03 99
20260506192940 46 9 1.0 2.0 0.00 0.03 0.03 99
20260506191920 46 18 3.0 6.0 0.00 0.03 0.03 99
20260506190920 46 310 3.0 4.0 0.00 0.03 0.03 99
20260506185920 46 339 2.0 2.0 0.00 0.03 0.03 99
20260506184900 46 29 2.0 3.0 0.00 0.03 0.03 99
20260506183900 46 41 3.0 5.0 0.00 0.03 0.03 99
20260506182840 46 345 2.0 3.0 0.00 0.03 0.03 99
20260506181840 46 36 4.0 4.0 0.00 0.03 0.03 99
20260506180840 46 25 1.0 2.0 0.00 0.03 0.03 99
20260506175820 46 19 3.0 4.0 0.00 0.03 0.03 99
20260506174820 46 4 4.0 6.0 0.00 0.03 0.03 99
20260506173800 46 59 7.0 9.0 0.00 0.03 0.03 99
20260506172800 46 27 5.0 6.0 0.00 0.03 0.03 99
20260506171800 47 31 4.0 5.0 0.00 0.03 0.03 99
20260506170759 47 359 3.0 5.0 0.00 0.03 0.03 99
20260506165800 48 27 2.0 6.0 0.00 0.03 0.03 99
20260506164759 48 66 2.0 5.0 0.00 0.03 0.03 99
20260506163800 49 4 1.0 3.0 0.00 0.03 0.03 99
20260506162740 49 25 2.0 9.0 0.00 0.03 0.03 99
20260506161740 49 7 4.0 7.0 0.00 0.03 0.03 99
20260506160720 50 348 3.0 4.0 0.00 0.03 0.03 99
20260506155720 50 56 6.0 5.0 0.00 0.03 0.03 99
20260506154700 50 54 1.0 5.0 0.00 0.03 0.03 99
20260506153700 50 56 2.0 3.0 0.00 0.03 0.03 99
20260506152659 51 39 5.0 5.0 0.00 0.03 0.03 99
20260506151640 51 63 2.0 5.0 0.00 0.03 0.03 99
20260506150639 51 58 5.0 4.0 0.00 0.03 0.03 99
20260506145619 52 44 1.0 3.0 0.00 0.03 0.03 99
20260506144619 53 17 4.0 6.0 0.00 0.03 0.03 99
20260506143559 54 90 3.0 4.0 0.00 0.04 0.03 99
20260506142559 54 31 1.0 5.0 0.00 0.04 0.03 99
20260506141559 54 53 2.0 3.0 0.00 0.05 0.03 99
20260506140539 54 50 4.0 5.0 0.00 0.07 0.03 99
20260506135539 54 63 3.0 4.0 0.00 0.08 0.03 99
20260506134520 54 59 2.0 3.0 0.00 0.09 0.03 99
20260506133519 54 90 1.0 4.0 0.00 0.10 0.03 99
20260506132459 54 35 4.0 3.0 0.00 0.11 0.03 99
20260506131459 55 64 3.0 4.0 0.00 0.12 0.03 99
20260506130439 55 76 3.0 5.0 0.00 0.12 0.03 99
20260506125439 54 7 2.0 3.0 0.00 0.12 0.03 99
20260506124439 55 313 0.0 0.0 0.00 0.12 0.03 99
20260506123419 54 66 3.0 4.0 0.00 0.12 0.03 99
20260506122419 54 71 0.0 2.0 0.00 0.12 0.03 99
20260506121359 54 21 1.0 2.0 0.00 0.11 0.02 99
20260506120359 55 51 1.0 2.0 0.00 0.11 0.02 99
20260506115339 55 73 1.0 2.0 0.00 0.11 0.02 99
20260506114339 55 77 1.0 3.0 0.00 0.11 0.02 99
20260506113319 56 10 0.0 1.0 0.00 0.11 0.02 99
20260506112319 56 128 2.0 2.0 0.00 0.11 0.02 99
20260506111259 56 155 1.0 2.0 0.00 0.11 0.02 99
20260506110259 57 0 0.0 0.0 0.00 0.11 0.02 99
20260506105259 56 152 3.0 4.0 0.00 0.12 0.02 99
20260506104239 56 165 1.0 3.0 0.00 0.12 0.02 99
20260506103239 55 170 1.0 2.0 0.00 0.13 0.02 99
20260506102219 55 57 2.0 3.0 0.00 0.13 0.02 99
20260506101219 55 150 3.0 4.0 0.00 0.13 0.02 99
20260506100219 55 253 1.0 0.0 0.00 0.13 0.02 99
20260506095159 55 127 2.0 4.0 0.00 0.13 0.02 99
20260506094139 55 113 1.0 1.0 0.00 0.13 0.02 99
20260506093139 55 159 2.0 3.0 0.00 0.13 0.02 99
20260506092119 55 129 1.0 1.0 0.00 0.13 0.02 99
20260506091119 54 223 1.0 2.0 0.00 0.13 0.02 99
20260506090119 55 140 3.0 3.0 0.00 0.13 0.02 99
20260506085059 55 180 2.0 4.0 0.00 0.13 0.02 99
20260506084059 54 122 1.0 0.0 0.00 0.13 0.02 99
20260506083039 53 142 3.0 2.0 0.00 0.13 0.02 99
20260506082039 53 123 4.0 6.0 0.00 0.13 0.02 99
20260506081039 54 156 1.0 2.0 0.00 0.13 0.02 99
20260506073019 52 91 4.0 7.0 0.00 0.13 0.02 99
20260506072019 52 71 6.0 6.0 0.00 0.13 0.02 99
20260506070959 51 50 4.0 7.0 0.00 0.13 0.02 99
20260506061919 50 83 4.0 5.0 0.00 0.13 0.02 99
20260506060919 50 65 3.0 9.0 0.00 0.13 0.02 99
20260506050838 48 36 5.0 9.0 0.00 0.13 0.02 99
20260506044838 48 33 3.0 3.0 0.00 0.13 0.02 99
20260506043838 48 65 3.0 5.0 0.00 0.13 0.02 99
20260506042818 48 49 5.0 6.0 0.00 0.13 0.02 99
20260506041818 48 36 2.0 7.0 0.00 0.13 0.02 99
20260506040758 48 32 2.0 7.0 0.00 0.13 0.02 99
20260506035738 48 59 1.0 2.0 0.00 0.13 0.02 99
20260506035138 48 70 4.0 4.0 0.00 0.13 0.02 99
20260506034138 48 73 3.0 4.0 0.00 0.13 0.02 99
20260506033118 48 83 6.0 8.0 0.00 0.13 0.02 99
20260506032118 48 74 3.0 4.0 0.00 0.13 0.02 99
20260506031118 48 54 4.0 7.0 0.00 0.13 0.02 99
20260506030118 47 48 4.0 7.0 0.00 0.13 0.02 99
20260506025118 47 62 1.0 5.0 0.00 0.13 0.02 99
20260506024118 47 90 3.0 4.0 0.00 0.13 0.02 99
20260506023118 47 15 2.0 4.0 0.00 0.13 0.02 99
20260506022058 47 88 4.0 6.0 0.00 0.13 0.02 99
20260506021058 47 38 3.0 5.0 0.01 0.13 0.02 99
20260506020058 47 33 3.0 4.0 0.02 0.13 0.02 99
20260506015039 47 49 3.0 3.0 0.02 0.13 0.02 99
20260506014040 47 61 4.0 7.0 0.02 0.13 0.02 99
20260506013038 47 60 5.0 6.0 0.02 0.13 0.02 99
20260506012638 47 77 4.0 7.0 0.02 0.13 0.02 99